STARLINK-4692, 53603

Orbit data source: Space-Track

STARLINK-4692, 53603 is a payload satellite owned by SpaceX/Seattle (US) in LEO that was launched on Sun, 28 Aug 2022 UTC via an FALCON 9 launch vehicle from the Air Force Eastern Test Range (AFETR). Payload-class satellites include a variety of spacecraft equipped with specific instruments for various scientific and technological missions. These include communications satellites like Starlink; space stations such as the ISS; scientific satellites like the Hubble; Earth observation satellites from companies like Planet Labs, Umbra, and HawkEye 360; GPS; miniature CubeSats for education and research; and military/defense satellites.

Loading next visibility...
Identifier
53603, 2022-104R
Orbit
LEO
Country
Flag of USUS
Related business
Manufacturer
SpaceX/Seattle
Mission
Operational Commercial Communications
Bus & Motor
STARLINK, Unknown motor
Mass
300 kg wet, ~290 kg dry
Launch date (UTC)
2022-08-28 (4 years ago)
Launch vehicle
FALCON 9
Launch site
Air Force Eastern Test Range (AFETR)
Object type
Payload
Rocket body
Debris
Shape & HBR
Box + 1 Pan, 10.1 m
Radar Cross Section
13.562 m², Large (>1 m²)

Expand to show TLE details & history
Last TLE update: 1 day ago

TLE from 1 day ago
0 STARLINK-4692
1 53603U 22104R   26252.97619298 -.00000349  00000-0 -38575-5 0  9995
2 53603  53.1579 131.4020 0001261  94.3129 265.8006 15.08829977223503
Epoch: 2026-09-09T23:25Z
TLE epoch observation values (Epoch: 2026-09-09T23:25:43.073Z)
Latitude
-0.00006°
Longitude
150.95195°
Altitude
540.729 km
Speed
7.593 km/s
True Right ascension
08h 45m 36s
True Declination
0° 00' 00"
Sunlit
Object was in daylight at epoch
Visualization orbit readout
Latitude
Unknown
Longitude
Unknown
Altitude
Unknown
Speed
Unknown
Apparent Right ascension
Unknown
Apparent Declination
Unknown
Sunlit
N/A
Visualization observer readout
Local Sidereal Time
16:39:36
Azimuth
Unknown
Elevation
Unknown
Doppler factor
Unknown
Orbital elements
Apogee altitude
540.901 km
Perigee altitude
539.156 km
Semi-major axis
6,918.165 km
Eccentricity
0.00013
Inclination
53.1579°
RAAN
131.402°
Arg. of periapsis
94.3129°
True anomaly
265.78619°
Mean anomaly
265.8006°
Eccentric anomaly
265.79339°
Mean motion
3.77187 °/min
Orbital period
95.44 mins
BSTAR
-0.0000038575
Loading maneuver chart data...
Computing Atmospheric mass density...
Loading historical data...
Loading historical data...
Loading historical data...
Loading historical data...
Loading historical data...
Loading historical data...
Loading historical data...

Documentation

Showing up to 5 results
|